• In United Kingdom
  • List of Countries
  • For 7 days
  • Water Temperature
  • Satellite Maps
  • Weather Map
  • Weather Widgets
  • user-avatar
    Login

    Hourly Weather Kuntaur

    Today, 15 November, Thursday

    Time Temperature Precipitation Wind Pressure Humidity
    00:00 +30°C° 0 mm 2 mps 757 mmHg 22%
    01:00 +30°C° 0 mm 2 mps 757 mmHg 23%
    02:00 +29°C° 0 mm 2 mps 757 mmHg 25%
    03:00 +29°C° 0 mm 1 mps 757 mmHg 25%
    04:00 +28°C° 0 mm 1 mps 757 mmHg 25%
    05:00 +28°C° 0 mm 1 mps 757 mmHg 25%
    06:00 +29°C° 0 mm 1 mps 757 mmHg 24%
    07:00 +29°C° 0 mm 2 mps 758 mmHg 23%
    08:00 +30°C° 0 mm 2 mps 758 mmHg 21%
    09:00 +32°C° 0 mm 2 mps 758 mmHg 19%
    10:00 +35°C° 0 mm 2 mps 757 mmHg 18%
    11:00 +36°C° 0 mm 3 mps 757 mmHg 16%
    12:00 +37°C° 0 mm 2 mps 756 mmHg 16%
    13:00 +38°C° 0 mm 2 mps 756 mmHg 16%
    14:00 +39°C° 0 mm 2 mps 755 mmHg 15%
    15:00 +39°C° 0 mm 2 mps 755 mmHg 16%
    16:00 +38°C° 0 mm 2 mps 755 mmHg 17%
    17:00 +37°C° 0 mm 2 mps 755 mmHg 18%
    18:00 +36°C° 0 mm 2 mps 756 mmHg 18%
    19:00 +35°C° 0 mm 2 mps 756 mmHg 19%
    20:00 +32°C° 0 mm 2 mps 757 mmHg 19%
    21:00 +33°C° 0 mm 3 mps 757 mmHg 19%
    22:00 +33°C° 0 mm 3 mps 757 mmHg 19%
    23:00 +31°C° 0 mm 3 mps 757 mmHg 19%

    Tomorrow, 16 November, Friday

    Time Temperature Precipitation Wind Pressure Humidity
    00:00 +31°C° 0 mm 3 mps 757 mmHg 20%
    01:00 +30°C° 0 mm 3 mps 757 mmHg 20%
    02:00 +30°C° 0 mm 4 mps 757 mmHg 20%
    03:00 +29°C° 0 mm 3 mps 757 mmHg 20%
    04:00 +29°C° 0 mm 3 mps 757 mmHg 21%
    05:00 +28°C° 0 mm 2 mps 757 mmHg 22%
    06:00 +29°C° 0 mm 3 mps 757 mmHg 20%
    07:00 +30°C° 0 mm 3 mps 758 mmHg 19%
    08:00 +32°C° 0 mm 4 mps 758 mmHg 17%
    09:00 +34°C° 0 mm 4 mps 758 mmHg 15%
    10:00 +37°C° 0 mm 4 mps 758 mmHg 13%
    11:00 +40°C° 0 mm 4 mps 758 mmHg 12%
    12:00 +41°C° 0 mm 4 mps 757 mmHg 12%
    13:00 +42°C° 0 mm 3 mps 756 mmHg 12%
    14:00 +43°C° 0 mm 3 mps 755 mmHg 12%
    15:00 +42°C° 0 mm 3 mps 755 mmHg 13%
    16:00 +40°C° 0 mm 3 mps 755 mmHg 14%
    17:00 +39°C° 0 mm 3 mps 755 mmHg 15%
    18:00 +38°C° 0 mm 3 mps 756 mmHg 16%
    19:00 +36°C° 0 mm 3 mps 756 mmHg 17%
    20:00 +35°C° 0 mm 4 mps 757 mmHg 18%
    21:00 +34°C° 0 mm 4 mps 757 mmHg 19%
    22:00 +33°C° 0 mm 4 mps 757 mmHg 19%
    23:00 +32°C° 0 mm 4 mps 757 mmHg 20%

    Day after tomorrow, 17 November, Saturday

    Time Temperature Precipitation Wind Pressure Humidity
    00:00 +32°C° 0 mm 4 mps 757 mmHg 21%
    01:00 +30°C° 0 mm 4 mps 757 mmHg 22%
    02:00 +29°C° 0 mm 4 mps 756 mmHg 23%
    03:00 +29°C° 0 mm 3 mps 757 mmHg 23%
    04:00 +29°C° 0 mm 3 mps 757 mmHg 23%
    05:00 +28°C° 0 mm 2 mps 757 mmHg 23%
    06:00 +29°C° 0 mm 3 mps 757 mmHg 22%
    07:00 +30°C° 0 mm 3 mps 758 mmHg 20%
    08:00 +31°C° 0 mm 3 mps 758 mmHg 19%
    09:00 +35°C° 0 mm 3 mps 758 mmHg 17%
    10:00 +37°C° 0 mm 3 mps 758 mmHg 14%
    11:00 +39°C° 0 mm 3 mps 758 mmHg 12%
    12:00 +40°C° 0 mm 3 mps 757 mmHg 12%
    13:00 +42°C° 0 mm 3 mps 756 mmHg 13%
    14:00 +42°C° 0 mm 3 mps 755 mmHg 13%
    15:00 +40°C° 0 mm 3 mps 755 mmHg 14%
    16:00 +39°C° 0 mm 3 mps 755 mmHg 15%
    17:00 +38°C° 0 mm 3 mps 755 mmHg 17%
    18:00 +37°C° 0 mm 3 mps 756 mmHg 18%
    19:00 +35°C° 0 mm 3 mps 756 mmHg 19%
    20:00 +34°C° 0 mm 3 mps 757 mmHg 20%
    21:00 +33°C° 0 mm 4 mps 757 mmHg 21%
    22:00 +33°C° 0 mm 4 mps 757 mmHg 22%
    23:00 +32°C° 0 mm 4 mps 758 mmHg 23%

    18 November, Sunday

    Time Temperature Precipitation Wind Pressure Humidity
    00:00 +32°C° 0 mm 4 mps 757 mmHg 23%
    01:00 +30°C° 0 mm 4 mps 757 mmHg 23%
    02:00 +29°C° 0 mm 3 mps 756 mmHg 23%
    03:00 +29°C° 0 mm 3 mps 757 mmHg 25%
    04:00 +28°C° 0 mm 2 mps 757 mmHg 26%
    05:00 +28°C° 0 mm 1 mps 757 mmHg 28%
    06:00 +29°C° 0 mm 1 mps 757 mmHg 27%
    07:00 +30°C° 0 mm 1 mps 758 mmHg 26%
    08:00 +31°C° 0 mm 1 mps 758 mmHg 25%
    09:00 +34°C° 0 mm 2 mps 758 mmHg 24%
    10:00 +35°C° 0 mm 2 mps 758 mmHg 23%
    11:00 +37°C° 0 mm 3 mps 758 mmHg 22%
    12:00 +38°C° 0 mm 3 mps 757 mmHg 22%
    13:00 +38°C° 0 mm 4 mps 756 mmHg 21%
    14:00 +40°C° 0 mm 4 mps 756 mmHg 21%
    15:00 +38°C° 0 mm 4 mps 756 mmHg 22%
    16:00 +37°C° 0 mm 4 mps 756 mmHg 24%
    17:00 +36°C° 0 mm 4 mps 756 mmHg 26%
    18:00 +35°C° 0 mm 3 mps 756 mmHg 28%
    19:00 +34°C° 0 mm 3 mps 757 mmHg 31%
    20:00 +31°C° 0 mm 2 mps 757 mmHg 33%
    21:00 +31°C° 0 mm 3 mps 758 mmHg 34%
    22:00 +30°C° 0 mm 3 mps 758 mmHg 36%
    23:00 +30°C° 0 mm 4 mps 758 mmHg 37%

    19 November, Monday

    Time Temperature Precipitation Wind Pressure Humidity
    00:00 +29°C° 0 mm 4 mps 758 mmHg 39%
    01:00 +28°C° 0 mm 4 mps 757 mmHg 41%
    02:00 +28°C° 0 mm 4 mps 757 mmHg 43%
    03:00 +27°C° 0 mm 4 mps 757 mmHg 43%
    04:00 +27°C° 0 mm 3 mps 757 mmHg 43%
    05:00 +27°C° 0 mm 3 mps 757 mmHg 43%
    06:00 +27°C° 0 mm 4 mps 757 mmHg 41%
    07:00 +27°C° 0 mm 4 mps 758 mmHg 38%
    08:00 +28°C° 0 mm 4 mps 758 mmHg 36%
    09:00 +30°C° 0 mm 4 mps 758 mmHg 31%
    10:00 +34°C° 0 mm 3 mps 758 mmHg 27%
    11:00 +36°C° 0 mm 3 mps 758 mmHg 23%
    12:00 +37°C° 0 mm 3 mps 757 mmHg 22%
    13:00 +38°C° 0 mm 3 mps 756 mmHg 20%
    14:00 +39°C° 0 mm 3 mps 755 mmHg 19%
    15:00 +39°C° 0 mm 3 mps 755 mmHg 20%
    16:00 +38°C° 0 mm 2 mps 755 mmHg 21%
    17:00 +37°C° 0 mm 2 mps 755 mmHg 21%
    18:00 +36°C° 0 mm 2 mps 756 mmHg 23%
    19:00 +34°C° 0 mm 2 mps 757 mmHg 25%
    20:00 +31°C° 0 mm 2 mps 757 mmHg 26%
    21:00 +31°C° 0 mm 2 mps 757 mmHg 27%
    22:00 +30°C° 0 mm 3 mps 757 mmHg 28%
    23:00 +29°C° 0 mm 3 mps 757 mmHg 29%

    20 November, Tuesday

    Time Temperature Precipitation Wind Pressure Humidity
    00:00 +28°C° 0 mm 3 mps 757 mmHg 31%
    01:00 +27°C° 0 mm 3 mps 757 mmHg 33%
    02:00 +26°C° 0 mm 2 mps 757 mmHg 35%
    03:00 +26°C° 0 mm 2 mps 757 mmHg 37%
    04:00 +25°C° 0 mm 2 mps 757 mmHg 39%
    05:00 +25°C° 0 mm 2 mps 757 mmHg 41%
    06:00 +26°C° 0 mm 2 mps 758 mmHg 37%
    07:00 +27°C° 0 mm 3 mps 758 mmHg 34%
    08:00 +29°C° 0 mm 3 mps 759 mmHg 31%
    09:00 +31°C° 0 mm 3 mps 759 mmHg 26%
    10:00 +35°C° 0 mm 3 mps 758 mmHg 22%
    11:00 +37°C° 0 mm 3 mps 758 mmHg 17%
    12:00 +38°C° 0 mm 3 mps 757 mmHg 17%
    13:00 +39°C° 0 mm 2 mps 756 mmHg 16%
    14:00 +40°C° 0 mm 2 mps 755 mmHg 16%
    15:00 +39°C° 0 mm 2 mps 755 mmHg 17%
    16:00 +39°C° 0 mm 2 mps 755 mmHg 18%
    17:00 +38°C° 0 mm 2 mps 755 mmHg 20%
    18:00 +36°C° 0 mm 2 mps 756 mmHg 22%
    19:00 +35°C° 0 mm 2 mps 757 mmHg 24%
    20:00 +32°C° 0 mm 2 mps 757 mmHg 26%
    21:00 +31°C° 0 mm 3 mps 757 mmHg 28%
    22:00 +30°C° 0 mm 3 mps 758 mmHg 29%
    23:00 +29°C° 0 mm 3 mps 758 mmHg 30%
    Show more